www.pogodaiklimat.ru

Погода и климат >> Архив погоды >> Таиланд >> Бангна Агромет


ПОГОДА в Бангна Агромете

  • Прогноз погоды в Бангна Агромете
  • Монитор погоды в Бангна Агромете

АРХИВ ПОГОДЫ в Бангна Агромете

Время (UTC), дата Ветер
(напр.,м/с)
 
Видим.   Явления Облачность Т
(С)
Тd
(С)
f
(%)
Тe
(С)
Тes
(С)
Комфортность P
(гПа)
Po
(гПа)
Тmin
(С)
Tmax
(С)
R
(мм)
R24
(мм)
S
(см)
21 12.06 ЮЗ 5 10 км 8/1 600 м
[Cu hum Ac lent Cs]
+29.5 +24.8 76 +42 +42 опасность
перегрева
1006.1 1005.8
00 13.06 Ю 6 10 км 8/3 600 м
[Cu med, cong Ac lent Cs]
+30.0 +25.0 75 +43 +44 опасность
перегрева
1007.1 1006.8 +29.2
03 13.06 ЮЗ 6 10 км 6/3 600 м
[Cu med, cong Ac lent Cs]
+33.2 +24.2 59 +45 +49 опасность
перегрева
1008.2 1007.9
06 13.06 ЮЗ 6 10 км 8/3 600 м
[Cu med, cong Ac lent Cs]
+33.8 +25.4 62 +48 +52 опасность
перегрева
1007.2 1006.9
09 13.06 ЮЗ 8 10 км 9/6 600 м
[Cu Sc Ac As Cs]
+32.7 +25.1 64 +46 +47 опасность
перегрева
1005.0 1004.7
12 13.06 ЮЗ 6 10 км 9/6 600 м
[Cu Sc Ac As Cs]
+31.0 +26.1 75 +46 +46 опасность
перегрева
1005.9 1005.6 +34.4
15 13.06 ЮЗ 3 10 км 6/3 600 м
[Sc Ac lent Cs]
+30.7 +25.3 73 +45 +45 опасность
перегрева
1008.1 1007.8
18 13.06 ЮЗ 3 10 км 8/3 600 м
[Sc Ac lent Cs]
+30.2 +25.2 75 +44 +44 опасность
перегрева
1007.0 1006.7
21 13.06 ЮЗ 4 10 км 8/5 600 м
[Sc Ac lent Cs]
+29.5 +25.2 78 +43 +43 опасность
перегрева
1006.4 1006.1
00 14.06 Ю 4 10 км 8/3 600 м
[Cu med, cong Ac lent Cs]
+29.6 +25.2 77 +43 +43 опасность
перегрева
1007.2 1006.9 +29.1
03 14.06 ЮЗ 6 10 км 8/4 600 м
[Cu med, cong Ac lent Cs]
+32.5 +25.5 67 +47 +50 опасность
перегрева
1008.7 1008.4
06 14.06 Ю 6 10 км 6/3 600 м
[Cu Sc Ac lent Cs]
+34.5 +25.1 58 +48 +53 опасность
перегрева
1006.4 1006.1
09 14.06 Ю 6 10 км 5/3 600 м
[Cu med, cong Ac lent Cs]
+34.0 +24.7 58 +47 +49 опасность
перегрева
1004.7 1004.4
12 14.06 ЮЗ 2 10 км 6/3 600 м
[Cu med, cong Ac lent Cs]
+31.2 +24.2 66 +43 +43 опасность
перегрева
1006.0 1005.7 +35.1
15 14.06 Ю 3 10 км 6/3 600 м
[Cu med, cong Cs]
+30.6 +26.6 79 +47 +47 опасность
перегрева
1008.4 1008.1
18 14.06 ЮЗ 4 10 км 8/3 600 м
[Cu med, cong Ac lent Cs]
+30.3 +24.4 71 +43 +43 опасность
перегрева
1007.5 1007.2
21 14.06 Ю 2 10 км 5/1 600 м
[Cu med, cong Ac lent Cs]
+29.5 +24.8 76 +42 +42 опасность
перегрева
1006.2 1005.9
00 15.06 Ю 5 10 км 5/3 600 м
[Cu med, cong Ac lent Cs]
+29.5 +24.5 75 +42 +42 опасность
перегрева
1007.9 1007.6 +29.1
03 15.06 Ю 7 10 км 6/5 600 м
[Cu med, cong Ac lent Cs]
+33.8 +24.4 58 +46 +48 опасность
перегрева
1008.6 1008.3
06 15.06 ЮЗ 7 10 км 8/5 600 м
[Cu med, cong Ac lent Cs]
+34.4 +25.0 58 +48 +50 опасность
перегрева
1007.4 1007.1
09 15.06 ЮЗ 8 10 км 8/4 600 м
[Cu med, cong Ac lent Cs]
+34.5 +25.4 59 +49 +49 опасность
перегрева
1004.5 1004.2
12 15.06 ЮЗ 5 10 км 9/4 600 м
[Cu med, cong Ac As Cs]
+31.2 +26.0 74 +47 +47 опасность
перегрева
1005.4 1005.1 +35.4
15 15.06 ЮЗ 5 10 км гроза без осадков 9/5 300 м
[Cb cap Ac As Cs]
+31.0 +27.1 80 +49 +49 опасность
перегрева
1007.6 1007.3
18 15.06 штиль 0 9000 м слаб. дождь {гроза} 10/4 300 м
[Cu med, cong Ac As Cs]
+30.3 +23.8 68 +41 +41 опасность
перегрева
1007.4 1007.1 0.0
21 15.06 штиль 0 10 км {дождь} 8/3 600 м
[Cu med, cong Ac lent Cs]
+29.9 +23.4 68 +40 +40 очень
душно
1006.5 1006.2 0.0
00 16.06 штиль 0 10 км {дождь} 9/3 600 м
[Cu med, cong Ac lent Cs]
+29.5 +23.9 72 +41 +42 опасность
перегрева
1007.1 1006.8 +29.0 0.0
03 16.06 ЮЗ 6 10 км 8/3 600 м
[Sc Ac und Cs]
+33.2 +23.7 58 +45 +47 опасность
перегрева
1008.1 1007.9
06 16.06 ЮЗ 5 10 км 8/3 600 м
[Cu med, cong Ac lent Cs]
+34.2 +24.3 56 +46 +51 опасность
перегрева
1006.1 1005.8
09 16.06 В 2 5000 м гроза, ливневой дождь 10/4 300 м
[Cb cap Ac As Cs]
+27.3 +25.2 88 +39 +42 очень
душно
1005.2 1004.9 18
12 16.06 В 2 8000 м дымка {гроза, дождь} 10/6 600 м
[Cu Sc Ac As Cs]
+28.1 +26.6 92 +44 +44 опасность
перегрева
1006.3 1006.0 +34.7 0.2
15 16.06 штиль 0 8000 м дымка {дождь} 9/5 600 м
[Cu Sc Ac As Cs]
+28.4 +27.1 93 +45 +45 опасность
перегрева
1007.8 1007.5 0.0
18 16.06 штиль 0 10 км {дождь} 9/3 600 м
[Cu med, cong Ac As Cs]
+28.2 +26.1 88 +42 +42 опасность
перегрева
1007.0 1006.7 18
21 16.06 ЮЗ 4 10 км 8/3 600 м
[Sc Ac lent Cs]
+28.5 +24.3 78 +40 +40 очень
душно
1005.6 1005.3
00 17.06 ЮЗ 4 10 км 8/6 600 м
[Sc Ac lent Cs]
+29.0 +25.2 80 +42 +42 опасность
перегрева
1007.0 1006.7 +27.7
03 17.06 ЮЗ 6 10 км в посл. час дождь 10/5 300 м
[Cu med, cong Ac As Cs]
+29.6 +26.2 82 +45 +46 опасность
перегрева
1008.7 1008.5 0.4
06 17.06 ЮЗ 7 10 км {дождь} 10/6 600 м
[Cu med, cong Ac As Cs]
+30.4 +24.5 71 +43 +44 опасность
перегрева
1007.2 1006.9 0.4
09 17.06 Ю 6 10 км 10/6 600 м
[Cu med, cong Ac As Cs]
+30.5 +24.0 68 +42 +43 опасность
перегрева
1006.0 1005.7
12 17.06 ЮЗ 4 10 км 10/4 600 м
[Cu Sc Ac As Cs]
+30.0 +24.0 70 +41 +41 опасность
перегрева
1005.9 1005.6 +31.3
15 17.06 ЮЗ 3 10 км 10/3 600 м
[Cu med, cong Ac As Cs]
+29.5 +23.7 71 +40 +40 очень
душно
1007.8 1007.5
18 17.06 штиль 0 10 км 10/3 600 м
[Cu med, cong Ac As Cs]
+29.2 +24.0 74 +41 +41 опасность
перегрева
1006.8 1006.5
21 17.06 Ю 3 10 км 9/6 600 м
[Sc Ac lent Cs]
+29.2 +23.9 73 +40 +40 очень
душно
1005.9 1005.6
00 18.06 ЮЗ 6 10 км 9/6 600 м
[Cu Sc Ac lent Cs]
+29.4 +25.3 79 +43 +43 опасность
перегрева
1006.3 1006.0 +28.8
03 18.06 ЮЗ 6 10 км 6/4 600 м
[Cu Sc Ac lent Cs]
+31.0 +23.5 64 +42 +45 опасность
перегрева
1007.8 1007.5
06 18.06 Ю 5 10 км 9/5 600 м
[Cu Sc Ac As Cs]
+32.3 +22.9 58 +42 +46 опасность
перегрева
1006.9 1006.6
09 18.06 Ю 6 9000 м дымка 10/3 600 м
[Cu med, cong Ac As Cs]
+31.3 +24.0 65 +43 +44 опасность
перегрева
1005.4 1005.1
12 18.06 ЮЗ 4 9000 м дымка 8/3 600 м
[Cu med, cong Ac lent Cs]
+30.5 +23.2 65 +41 +41 опасность
перегрева
1005.9 1005.6 +33.9
15 18.06 Ю 2 10 км 8/3 600 м
[Cu med, cong Ac lent Cs]
+29.7 +24.4 73 +42 +42 опасность
перегрева
1007.7 1007.4
18 18.06 Ю 6 10 км 8/3 600 м
[Cu med, cong Ac lent Cs]
+29.3 +24.6 76 +42 +42 опасность
перегрева
1007.0 1006.7
21 18.06 Ю 6 10 км 9/3 600 м
[Cu med, cong Ac lent Cs]
+29.2 +25.1 79 +42 +42 опасность
перегрева
1006.4 1006.1
00 19.06 Ю 4 10 км 8/3 600 м
[Cu med, cong Ac lent Cs]
+29.0 +24.7 78 +41 +42 опасность
перегрева
1007.2 1006.9 +28.6
03 19.06 Ю 4 9000 м в посл. час дождь 10/4 600 м
[Cu Sc Ac As Cs]
+31.0 +24.1 67 +43 +46 опасность
перегрева
1008.8 1008.5 0.0
06 19.06 ЮЗ 6 8000 м слаб. дождь 9/6 600 м
[Cu Sc Ac As Cs]
+31.8 +24.5 65 +44 +46 опасность
перегрева
1007.7 1007.4 0.0
09 19.06 ЮЗ 4 10 км {дождь} 8/4 600 м
[Cu med, cong Ac lent Cs]
+32.7 +24.9 64 +46 +48 опасность
перегрева
1005.5 1005.2 0.0
12 19.06 Ю 5 10 км {дождь} 8/5 600 м
[Cu Sc Ac lent Cs]
+30.3 +25.0 73 +43 +43 опасность
перегрева
1006.2 1005.9 +33.4 0.0
15 19.06 штиль 0 7000 м слаб. дождь 10/5 600 м
[Cu Sc Ac As Cs]
+26.2 +24.5 90 +37 +37 очень
душно
1007.9 1007.6 2
18 19.06 штиль 0 8000 м дымка {дождь} 9/6 600 м
[Sc Ac As Cs]
+27.5 +24.6 84 +39 +39 очень
душно
1007.9 1007.6 0.2

 

Местоположение метеостанции Бангна Агромет (Таиланд): широта 13.67 долгота 100.62 высота над уровнем моря 6 м.

В архиве по умолчанию представлена погода в Бангна Агромете за последнюю неделю. Архивные данные за месяц целиком и за предыдущие месяцы, начиная с января 2011 года, Вы можете получить, выбрав интересующий диапазон дат из раскрывающегося списка и нажав кнопку "Ввод!".


*Определитесь, кто Вы:
робот инопланетянин человек

Внимание! Время в таблицах - всемирное. Для получения местного времени необходимо прибавить поправку, которая равна 7 ч.

Смотрите также архив погоды в соседних городах и на ближайших метеорологических станциях:

Погода в Бангкоке 2 (Таиланд) (6 км)
Погода в Бангкоке (Таиланд) (9 км)
Погода в Аэропорту Суварнабхуми (Таиланд) (15 км)
Погода в Самутрудкан Агромете (Таиланд) (22 км)
Погода в Дон Муанг (Таиланд) (28 км)
Погода в Бангкок Пилот (Таиланд) (32 км)
Погода в Патхумтхани (Таиланд) (48 км)
Погода в Чонбури (Таиланд) (51 км)
Погода в Ратбури (Таиланд) (51 км)
Погода на Ко Сичан (Таиланд) (59 км)

Пояснения к столбцам:

Ветер - указаны скорость ветра в м/с - средняя за 10 мин, порывы в срок и между сроками (в фигурных скобках) и направление, откуда дует ветер: С - северный, СВ - северо-восточный, В - восточный, ЮВ - юго-восточный, Ю - южный, ЮЗ - юго-западный, З - западный, СЗ - северо-западный.
Видимость - горизонтальная дальность видимости в метрах или километрах. При видимости от 1 до 10 км при отсутствии осадков обычно наблюдается дымка, при ухудшении видимости до 1 км и менее - туман. В сухую погоду видимость может ухудшаться дымом, пылью или мглою.
Явления - указаны атмосферные явления, наблюдавшиеся в срок или в последний час перед сроком; фигурными скобками обозначены явления, наблюдавшиеся между сроками (за 1-3 часа до срока); квадратными скобками обозначены град или гололедные отложения с указанием их диаметра в мм.
Облачность - указаны через наклонную черту общая и нижняя облачность в баллах и высота нижней границы облаков в метрах; квадратными скобками обозначены формы облаков: Ci - перистые, Cs - перисто-слоистые, Cc - перисто-кучевые, Ac - высококучевые, As - высокослоистые, Sc - слоисто-кучевые, Ns - слоисто-дождевые, Cu - кучевые, Cb - кучево-дождевые. Подробнее классификацию облаков см. в Атласе облаков (PDF).
T - Температура воздуха - температура, измеренная на высоте 2 м над землей.
Td - Температура точки росы - температура, при понижении до которой содержащийся в воздухе водяной пар достигнет насыщения.
f - Относительная влажность воздуха - влажноcть воздуха, измеренная на высоте 2 м над землей.
Te - Эффективная температура - температура, которую ощущает одетый по сезону человек в тени. Характеристика душности погоды. При расчете учитывается влияние влажности воздуха и скорости ветра на теплоощущения человека.
Tes - Эффективная температура на солнце - температура, которую ощущает человек, с поправкой на солнечный нагрев. Характеристика знойности погоды. Зависит от высоты солнца над горизонтом, облачности и скорости ветра. Ночью, в пасмурную погоду, а также при ветре 12 м/с и более поправка равна нулю.
P - Атмосферное давление - приведенное к уровню моря атмосферное давление.
Po - Атмосферное давление - измеренное на уровне метеостанции атмосферное давление.
Tmin - Минимальная температура - минимум температуры воздуха на высоте 2 м над землей.
Tmax - Максимальная температура - максимум температуры воздуха на высоте 2 м над землей.
R - Количество осадков - Количество выпавших осадков за период времени, мм. При наведении курсора мыши на число - период времени, за который выпало указанное количество осадков.
R24 - Количество осадков - Количество выпавших осадков за 24 часа, мм.
S - Снежный покров - Высота снежного покрова, см. При наведении курсора мыши на число - состояние снежного покрова и степень покрытия местности в баллах.